Temp
58 58 57 56 55 54 53 52 52 51 50 50 50 50 50 51 51 50 51 51 51 51 51 51 51 51 51 50 50 50 49 48 48 47 47 47 46 46 45 45 45 45
58 58 57 56 55 54 53 52 52 51 50 50 50 50 50 50 50 51 50 50 51 50 51 51 51 51 50 50 49 49 48 48 48 49 46 46 46 46 45 44 45 45
58 57 56 55 54 52 52 52 51 51 50 49 50 50 50 50 49 50 50 50 50 49 50 50 50 50 50 49 49 49 48 47 46 47 47 46 46 45 45 45 45 44
57 57 56 54 53 52 52 51 51 50 50 50 49 50 50 51 50 49 50 51 49 49 49 49 49 49 49 49 48 48 47 47 47 47 47 47 47 46 45 46 45 44
56 55 54 53 53 53 52 51 50 50 50 49 49 50 50 49 48 48 48 48 48 48 48 48 49 49 49 48 48 47 47 46 46 47 46 45 46 46 46 45 44 43
55 55 54 54 53 52 51 51 50 50 49 49 48 49 48 48 48 48 48 47 47 48 48 48 48 48 48 48 47 47 46 46 46 46 46 45 45 45 45 44 44 43
53 53 53 53 53 52 51 50 50 50 49 49 49 47 48 47 48 47 47 47 47 48 48 47 47 47 48 47 47 46 46 46 46 46 45 45 45 44 44 44 44 43
53 53 52 52 51 50 50 49 49 48 48 48 47 47 47 47 47 47 46 46 46 46 46 47 47 47 47 47 47 46 46 46 45 45 44 44 44 44 44 44 43 43
52 51 51 51 50 49 49 48 48 48 48 47 46 46 46 46 46 46 46 46 45 45 46 46 46 46 47 47 46 46 46 46 45 45 45 44 44 44 44 43 43 43
51 51 50 50 49 49 48 48 48 47 48 46 45 45 45 45 45 45 45 45 45 44 45 45 45 46 46 47 47 46 46 45 45 45 45 45 44 44 43 44 43 43
50 50 49 49 48 48 47 47 47 46 47 46 45 44 44 44 45 45 44 45 44 44 44 44 45 45 45 45 45 45 45 45 44 44 44 44 44 44 46 44 45 44
50 49 49 48 48 47 47 46 46 46 45 45 45 44 43 43 44 44 44 43 43 43 43 43 44 44 45 45 44 44 44 44 45 45 44 45 45 45 44 44 44 44
50 49 48 48 48 47 46 46 46 45 45 44 45 44 43 43 43 43 43 42 42 42 42 43 42 43 43 43 43 43 44 45 44 44 44 44 44 44 44 43 43 43
49 48 48 48 47 47 46 45 45 44 44 44 44 43 42 42 42 42 42 42 42 42 42 42 42 42 41 41 42 43 44 44 44 45 45 44 44 43 44 43 43 43
48 48 48 48 47 46 45 44 44 44 44 44 44 43 42 41 41 41 41 41 41 41 42 42 42 42 42 42 42 41 42 44 44 45 44 44 43 43 42 43 44 43
48 48 48 47 46 45 45 44 44 43 43 42 42 41 41 41 41 41 41 41 41 41 41 42 42 43 46 44 44 43 42 43 43 44 44 44 45 44 44 44 44 41
48 47 47 46 46 45 44 44 43 43 42 42 41 41 41 42 41 40 40 40 41 41 41 41 42 44 43 41 41 43 43 43 44 44 44 44 44 44 44 46 43 43
47 47 47 46 45 44 44 44 43 42 42 41 40 40 41 40 40 40 39 40 40 40 40 41 42 44 40 41 41 42 44 43 43 44 43 43 43 42 43 43 43 43
47 47 46 45 45 44 44 43 42 42 41 41 40 40 40 39 39 39 39 39 40 41 41 42 42 42 40 41 41 41 42 43 42 42 43 42 41 41 41 41 42 44
47 47 46 45 45 44 43 42 42 41 41 41 41 40 39 38 38 39 39 39 40 40 40 40 41 42 40 41 41 40 40 41 41 42 41 41 42 41 42 42 43 44
47 46 45 45 44 44 43 42 41 40 40 40 40 39 39 38 38 38 39 40 40 39 40 40 41 41 40 40 40 40 40 41 41 42 41 41 41 41 42 42 42 41
48 47 46 45 44 44 43 42 41 41 40 40 39 38 38 38 38 39 39 38 38 39 40 38 39 39 39 40 40 39 41 42 41 41 41 41 41 41 41 42 41 42
48 47 46 45 44 43 42 41 40 39 39 40 38 38 38 38 38 39 39 38 39 39 39 38 39 40 39 39 39 39 40 40 40 41 41 41 41 40 40 40 41 45
48 47 46 45 45 44 42 42 41 41 40 41 40 39 39 39 39 38 37 39 39 38 40 39 38 40 39 39 39 39 40 39 40 40 39 40 40 40 39 39 42 48
48 47 46 46 46 44 43 42 41 41 41 41 40 40 40 39 40 38 37 37 38 39 44 40 38 41 40 39 39 39 39 38 39 40 40 38 37 41 39 38 39 41
48 47 46 45 45 44 44 43 43 42 41 40 40 41 40 39 40 39 38 38 39 41 42 39 39 39 41 39 39 39 38 38 38 41 40 39 39 42 41 40 39 39
MSLP
1019.95 1020.35 1020.63 1020.99 1021.43 1021.75 1022.03 1022.31 1022.63 1022.83 1023.23 1023.51 1023.63 1023.91 1023.99 1024.15 1024.23 1024.27 1024.39 1024.51 1024.59 1024.63 1024.67 1024.71 1024.79 1024.91 1025.03 1025.11 1025.19 1025.27 1025.47 1025.67 1025.75 1025.87 1025.99 1026.07 1026.27 1026.35 1026.47 1026.59 1026.63 1026.67
1020.07 1020.39 1020.71 1021.15 1021.59 1021.99 1022.23 1022.39 1022.67 1022.95 1023.39 1023.67 1023.87 1023.99 1024.15 1024.27 1024.43 1024.43 1024.59 1024.67 1024.75 1024.83 1024.87 1024.99 1025.07 1025.19 1025.31 1025.43 1025.55 1025.63 1025.83 1025.91 1025.99 1026.15 1026.27 1026.39 1026.59 1026.63 1026.75 1026.79 1026.87 1027.03
1020.15 1020.55 1020.91 1021.23 1021.67 1022.11 1022.35 1022.63 1022.87 1023.23 1023.51 1023.83 1023.99 1024.15 1024.35 1024.47 1024.59 1024.71 1024.79 1024.79 1024.87 1025.03 1025.15 1025.23 1025.35 1025.47 1025.59 1025.71 1025.83 1025.91 1026.07 1026.15 1026.27 1026.43 1026.47 1026.67 1026.79 1026.83 1026.99 1027.03 1027.11 1027.27
1020.39 1020.63 1020.99 1021.43 1021.79 1022.11 1022.43 1022.71 1023.11 1023.43 1023.67 1023.91 1024.11 1024.31 1024.43 1024.63 1024.71 1024.87 1024.91 1024.91 1025.07 1025.27 1025.43 1025.47 1025.59 1025.75 1025.87 1025.99 1026.07 1026.23 1026.31 1026.39 1026.51 1026.55 1026.67 1026.83 1026.95 1026.99 1027.15 1027.23 1027.39 1027.47
1020.47 1020.91 1021.27 1021.59 1021.95 1022.19 1022.43 1022.75 1023.19 1023.51 1023.75 1024.07 1024.27 1024.43 1024.59 1024.79 1024.95 1025.03 1025.11 1025.19 1025.27 1025.51 1025.63 1025.75 1025.91 1026.03 1026.11 1026.23 1026.27 1026.39 1026.51 1026.63 1026.71 1026.75 1026.79 1026.95 1027.11 1027.15 1027.39 1027.43 1027.51 1027.51
1020.75 1020.99 1021.35 1021.63 1021.95 1022.19 1022.55 1022.91 1023.31 1023.63 1023.95 1024.15 1024.43 1024.63 1024.79 1024.95 1025.07 1025.15 1025.27 1025.39 1025.55 1025.67 1025.87 1025.99 1026.15 1026.27 1026.31 1026.43 1026.47 1026.59 1026.67 1026.75 1026.87 1026.87 1026.95 1027.11 1027.35 1027.43 1027.51 1027.55 1027.51 1027.59
1020.95 1021.27 1021.55 1021.83 1022.11 1022.31 1022.67 1023.15 1023.51 1023.83 1024.07 1024.31 1024.59 1024.83 1024.99 1025.11 1025.19 1025.35 1025.43 1025.55 1025.67 1025.87 1026.03 1026.19 1026.31 1026.47 1026.55 1026.59 1026.67 1026.75 1026.83 1026.87 1026.95 1026.99 1027.11 1027.35 1027.43 1027.59 1027.67 1027.59 1027.63 1027.71
1021.03 1021.39 1021.67 1021.95 1022.23 1022.59 1022.91 1023.35 1023.71 1024.03 1024.27 1024.51 1024.75 1025.07 1025.11 1025.23 1025.39 1025.55 1025.63 1025.75 1025.91 1026.11 1026.27 1026.39 1026.47 1026.59 1026.67 1026.67 1026.79 1026.87 1026.95 1026.99 1027.07 1027.15 1027.27 1027.47 1027.51 1027.55 1027.67 1027.75 1027.79 1027.79
1021.11 1021.51 1021.79 1022.07 1022.39 1022.83 1023.19 1023.59 1023.91 1024.23 1024.43 1024.67 1024.95 1025.23 1025.39 1025.39 1025.55 1025.67 1025.79 1025.95 1026.11 1026.35 1026.43 1026.55 1026.59 1026.67 1026.75 1026.71 1026.79 1026.83 1026.91 1027.07 1027.15 1027.19 1027.27 1027.39 1027.47 1027.55 1027.67 1027.83 1027.83 1027.83
1021.27 1021.63 1021.91 1022.27 1022.63 1023.03 1023.39 1023.79 1024.07 1024.39 1024.67 1024.87 1025.15 1025.35 1025.47 1025.67 1025.71 1025.83 1025.95 1026.11 1026.31 1026.51 1026.59 1026.63 1026.71 1026.75 1026.79 1026.79 1026.83 1026.87 1026.95 1027.07 1027.23 1027.31 1027.39 1027.43 1027.47 1027.63 1027.79 1027.79 1027.79 1027.83
1021.43 1021.71 1022.03 1022.43 1022.83 1023.23 1023.59 1023.95 1024.27 1024.59 1024.83 1024.99 1025.23 1025.47 1025.63 1025.75 1025.95 1026.03 1026.15 1026.27 1026.43 1026.55 1026.63 1026.67 1026.71 1026.75 1026.79 1026.91 1026.99 1027.07 1027.11 1027.19 1027.27 1027.35 1027.43 1027.51 1027.59 1027.71 1027.79 1027.79 1027.83 1027.79
1021.47 1021.83 1022.15 1022.55 1022.95 1023.35 1023.71 1024.07 1024.43 1024.71 1024.95 1025.15 1025.23 1025.47 1025.75 1025.87 1025.99 1026.23 1026.27 1026.47 1026.63 1026.71 1026.71 1026.75 1026.79 1026.75 1026.79 1026.91 1027.07 1027.23 1027.31 1027.35 1027.35 1027.39 1027.51 1027.55 1027.67 1027.79 1027.79 1027.83 1027.79 1027.75
1021.51 1021.87 1022.23 1022.63 1022.99 1023.43 1023.87 1024.19 1024.51 1024.79 1024.95 1025.15 1025.35 1025.47 1025.63 1025.95 1026.19 1026.35 1026.59 1026.59 1026.79 1026.79 1026.75 1026.75 1026.83 1026.83 1026.87 1027.03 1027.15 1027.23 1027.27 1027.31 1027.43 1027.55 1027.63 1027.67 1027.75 1027.75 1027.83 1027.87 1027.83 1027.75
1021.51 1021.91 1022.27 1022.67 1023.11 1023.51 1023.91 1024.27 1024.55 1024.83 1025.03 1025.23 1025.39 1025.59 1025.79 1026.03 1026.27 1026.47 1026.71 1026.75 1026.79 1026.83 1026.91 1026.87 1026.83 1026.91 1027.03 1027.11 1027.19 1027.19 1027.23 1027.31 1027.39 1027.51 1027.63 1027.79 1027.83 1027.87 1027.91 1027.87 1027.87 1027.83
1021.59 1021.99 1022.35 1022.71 1023.15 1023.59 1023.99 1024.31 1024.59 1024.87 1025.11 1025.31 1025.51 1025.75 1026.03 1026.27 1026.47 1026.55 1026.67 1026.75 1026.87 1026.91 1026.95 1026.95 1026.79 1026.83 1026.99 1027.03 1027.11 1027.35 1027.27 1027.31 1027.47 1027.51 1027.63 1027.75 1027.99 1028.03 1028.03 1027.95 1027.95 1027.95
1021.55 1021.99 1022.39 1022.79 1023.23 1023.63 1023.99 1024.31 1024.63 1024.91 1025.15 1025.39 1025.63 1025.87 1026.15 1026.39 1026.51 1026.63 1026.63 1026.63 1026.75 1026.95 1026.95 1026.91 1026.87 1026.91 1026.99 1027.07 1026.95 1027.03 1027.27 1027.39 1027.55 1027.63 1027.71 1027.79 1027.83 1027.91 1027.91 1027.95 1027.95 1027.95
1021.55 1021.99 1022.43 1022.83 1023.19 1023.63 1024.03 1024.35 1024.67 1024.91 1025.19 1025.47 1025.75 1025.95 1026.15 1026.35 1026.47 1026.55 1026.63 1026.71 1026.79 1026.83 1026.87 1026.91 1026.91 1026.95 1026.99 1027.03 1027.03 1026.99 1027.15 1027.31 1027.43 1027.67 1027.79 1027.75 1027.83 1027.83 1027.83 1027.83 1027.87 1027.87
1021.51 1021.95 1022.43 1022.87 1023.23 1023.63 1023.99 1024.35 1024.63 1024.91 1025.19 1025.47 1025.71 1025.95 1026.15 1026.31 1026.43 1026.51 1026.63 1026.75 1026.91 1026.95 1026.87 1026.91 1026.91 1027.03 1027.07 1027.07 1026.99 1027.03 1027.11 1027.31 1027.51 1027.59 1027.75 1027.75 1027.83 1027.83 1027.91 1027.87 1027.87 1027.87
1021.43 1021.87 1022.39 1022.87 1023.23 1023.59 1023.99 1024.39 1024.67 1024.91 1025.19 1025.43 1025.67 1025.87 1026.07 1026.19 1026.39 1026.51 1026.63 1026.87 1026.87 1026.83 1026.91 1027.03 1027.07 1027.19 1027.23 1027.15 1027.15 1027.23 1027.31 1027.39 1027.63 1027.71 1027.75 1027.87 1027.91 1027.91 1027.95 1027.95 1027.95 1027.95
1021.27 1021.79 1022.31 1022.75 1023.15 1023.55 1023.95 1024.31 1024.63 1024.87 1025.15 1025.39 1025.71 1025.95 1025.99 1026.19 1026.43 1026.47 1026.71 1026.83 1026.91 1026.87 1027.03 1027.15 1027.15 1027.31 1027.27 1027.11 1027.27 1027.35 1027.47 1027.47 1027.67 1027.75 1027.87 1027.95 1027.95 1027.99 1027.99 1027.99 1028.07 1028.19
1021.19 1021.63 1022.15 1022.67 1023.07 1023.43 1023.83 1024.15 1024.47 1024.91 1025.19 1025.47 1025.67 1025.79 1025.87 1025.99 1026.23 1026.43 1026.67 1026.87 1027.03 1027.11 1027.07 1027.19 1027.31 1027.39 1027.31 1027.23 1027.35 1027.43 1027.55 1027.63 1027.87 1027.99 1028.03 1028.11 1028.23 1028.19 1028.11 1028.11 1028.31 1028.43
1020.87 1021.43 1021.95 1022.43 1022.87 1023.23 1023.55 1023.95 1024.39 1024.67 1025.03 1025.47 1025.79 1026.03 1026.07 1026.19 1026.43 1026.51 1026.67 1026.91 1027.11 1027.11 1027.03 1027.15 1027.39 1027.47 1027.43 1027.35 1027.47 1027.63 1027.71 1027.87 1027.95 1027.91 1027.99 1028.11 1028.19 1028.27 1028.27 1028.39 1028.51 1028.51
1020.51 1021.03 1021.63 1022.19 1022.63 1022.99 1023.39 1023.79 1024.23 1024.79 1025.11 1025.31 1025.71 1025.95 1025.95 1026.07 1026.19 1026.39 1026.71 1026.91 1027.03 1027.03 1026.91 1027.15 1027.31 1027.47 1027.51 1027.43 1027.55 1027.71 1027.79 1027.95 1027.99 1028.03 1028.03 1028.03 1028.11 1028.27 1028.43 1028.51 1028.55 1028.39
1020.43 1020.87 1021.43 1021.95 1022.39 1022.79 1023.23 1023.63 1023.99 1024.35 1024.71 1025.03 1025.27 1025.63 1025.79 1025.95 1026.15 1026.43 1026.79 1026.87 1026.83 1026.91 1026.83 1026.91 1027.27 1027.51 1027.55 1027.51 1027.59 1027.71 1027.63 1027.71 1027.87 1027.83 1027.99 1027.99 1028.11 1028.31 1028.51 1028.55 1028.47 1028.27
1021.35 1021.71 1021.99 1022.19 1022.35 1022.71 1023.15 1023.59 1023.87 1024.11 1024.47 1024.83 1025.19 1025.35 1025.55 1025.91 1026.11 1026.35 1026.71 1026.95 1026.95 1026.87 1026.87 1026.75 1027.15 1027.39 1027.51 1027.51 1027.59 1027.67 1027.71 1027.79 1027.75 1027.71 1027.79 1027.95 1028.03 1027.99 1028.19 1028.35 1028.43 1028.51
1020.55 1021.11 1021.91 1022.47 1022.71 1022.95 1023.31 1023.55 1023.75 1024.03 1024.39 1024.75 1025.11 1025.23 1025.51 1025.83 1026.03 1026.27 1026.47 1026.71 1026.87 1026.83 1026.87 1026.87 1026.99 1027.27 1027.43 1027.55 1027.59 1027.67 1027.67 1027.71 1027.71 1027.55 1027.63 1027.83 1027.95 1027.83 1027.71 1027.75 1027.95 1028.07
Wind_Speed
8 7 8 7 7 6 7 7 6 7 6 5 6 5 6 4 5 6 6 6 5 7 7 7 8 8 7 8 8 8 7 9 8 8 9 8 8 9 8 9 9 7
9 8 7 7 6 5 6 7 7 7 6 6 5 6 5 5 4 5 6 6 6 7 7 7 7 8 8 8 8 8 8 8 9 6 8 9 7 8 9 8 8 7
9 9 9 10 9 8 8 7 7 6 7 6 6 5 5 5 6 5 6 6 7 7 7 7 7 8 8 8 7 7 8 8 9 7 7 8 7 7 7 7 7 7
9 9 9 9 8 9 8 8 7 7 6 7 6 5 5 5 5 6 6 7 7 7 7 7 8 7 8 8 8 7 8 7 7 7 7 6 6 7 7 5 5 5
10 9 8 8 8 8 8 9 8 7 7 7 6 5 6 6 6 6 6 6 7 7 7 7 7 7 7 7 7 7 6 7 6 6 7 7 6 6 4 5 5 6
8 8 8 9 9 9 8 8 8 8 8 7 6 5 6 6 6 6 7 7 6 7 7 7 7 7 7 7 7 7 7 6 6 7 7 7 6 5 4 5 6 7
9 8 9 8 9 9 9 8 7 7 7 6 6 6 6 6 6 6 7 7 7 7 7 7 7 7 6 7 7 7 6 6 6 7 7 6 6 5 4 5 6 6
9 8 8 8 9 9 9 8 8 7 7 7 7 5 5 7 7 6 6 7 7 7 7 7 7 7 6 6 7 7 6 5 6 6 6 6 5 6 5 4 4 5
9 9 9 10 10 8 9 8 8 7 6 8 7 6 5 6 7 6 7 7 7 7 7 7 7 7 6 7 7 7 7 6 5 6 6 6 6 6 5 4 5 5
9 9 10 9 10 8 9 8 8 7 6 7 7 6 7 5 6 7 7 7 7 6 7 7 7 6 6 6 7 7 7 7 5 5 5 5 6 5 4 4 5 4
9 9 10 9 9 8 10 9 8 7 6 7 7 7 6 7 5 5 7 7 7 7 7 7 7 7 7 6 5 5 6 6 5 5 5 5 5 5 3 4 4 4
10 9 10 10 10 10 10 9 8 8 7 6 7 8 6 6 7 5 6 7 6 6 6 6 6 6 7 7 6 6 5 5 5 5 5 5 4 4 4 3 4 3
10 10 10 10 10 10 8 8 8 8 8 8 6 8 8 7 6 7 4 7 6 6 6 7 6 6 6 6 6 6 6 6 5 5 4 4 4 4 3 3 2 2
9 9 10 10 9 9 9 8 8 7 7 6 6 7 7 7 7 7 5 5 5 6 5 5 6 6 6 6 5 5 6 5 6 6 5 4 4 3 2 2 1 1
9 8 9 10 10 10 9 9 8 7 7 7 6 6 5 6 6 7 7 7 5 5 5 5 6 6 5 6 6 5 5 6 5 6 6 5 4 2 1 1 1 2
10 9 10 10 10 10 9 9 8 8 8 7 7 7 7 6 6 6 6 7 7 5 5 4 5 4 5 7 5 7 6 5 5 5 5 5 5 3 2 2 3 3
10 10 10 11 10 9 9 9 9 8 8 8 7 7 7 6 6 7 6 6 6 6 6 4 4 3 6 7 8 9 7 6 6 5 5 5 4 4 2 1 3 3
10 11 11 10 10 10 10 9 9 9 8 8 8 8 6 6 6 6 6 6 5 5 5 4 4 4 7 7 8 8 6 6 5 5 4 4 4 4 2 2 2 3
11 11 11 10 10 10 9 9 9 9 9 8 8 6 6 7 6 7 6 5 6 6 5 4 4 5 7 9 9 9 9 7 5 5 5 4 4 4 3 3 2 3
12 12 11 11 10 10 10 9 9 9 8 7 7 6 7 7 6 7 6 6 5 6 6 5 5 4 7 10 9 9 8 7 5 5 5 4 4 4 4 4 4 3
12 12 12 11 11 11 10 10 9 8 8 7 7 8 8 8 8 7 5 5 5 6 6 5 4 5 7 9 9 9 8 6 5 5 5 5 4 4 4 5 4 1
13 13 13 12 12 11 11 10 10 10 9 7 6 5 5 6 5 5 6 6 5 6 6 5 3 4 6 9 9 8 8 5 5 6 5 5 4 4 4 3 0 0
13 14 13 13 12 12 11 11 11 9 7 7 7 6 7 7 7 5 6 6 6 5 7 5 4 3 6 8 8 9 6 5 5 5 5 5 4 3 3 1 1 1
12 13 14 13 12 12 11 10 9 8 9 7 9 9 8 7 7 6 5 6 7 7 7 7 5 4 6 7 8 7 6 6 5 6 5 4 3 1 1 0 2 4
7 7 9 11 12 11 10 11 10 10 8 7 7 7 7 7 6 7 5 4 5 6 8 8 6 4 6 7 7 7 6 5 5 5 6 3 2 1 0 1 1 2
12 13 11 10 9 9 9 9 8 8 9 8 7 7 7 7 7 7 7 5 4 4 5 6 7 4 4 6 6 6 6 5 5 6 6 4 3 1 1 3 3 3
Wind_Direction
126 128 126 120 119 123 129 124 118 113 108 111 112 113 105 97 90 92 95 98 96 93 89 88 89 90 88 85 84 83 82 86 85 87 86 85 83 84 78 71 62 61
126 122 113 112 109 111 111 117 118 116 115 109 108 105 93 96 82 97 104 99 92 91 91 91 94 97 95 92 90 91 90 90 90 86 89 85 83 81 78 74 73 65
126 124 128 131 131 128 121 112 111 112 111 109 103 99 103 99 99 93 101 103 97 91 89 95 96 95 97 96 95 94 96 96 93 88 88 87 84 81 79 75 71 67
124 130 130 126 128 127 123 117 112 110 109 107 108 111 109 106 102 100 98 97 97 93 94 95 100 99 100 102 101 94 96 93 98 98 93 86 79 83 78 79 79 71
132 126 124 124 123 122 121 121 121 119 114 115 111 111 109 110 107 104 102 95 97 97 96 98 101 105 106 104 104 104 99 99 95 96 95 86 79 83 84 87 83 73
119 125 130 132 132 129 124 123 122 121 121 118 120 111 113 112 110 111 107 104 98 101 101 103 106 109 111 109 105 105 109 103 99 98 90 86 81 71 88 84 82 72
129 129 129 124 121 119 117 118 119 118 119 122 111 114 121 114 110 111 109 107 105 101 110 115 118 117 115 115 110 110 106 105 100 93 94 95 93 84 75 80 77 77
128 126 125 123 118 117 118 120 121 122 125 118 116 116 120 117 114 111 107 108 104 106 110 116 118 120 126 121 119 116 110 107 104 96 98 98 100 95 81 72 82 81
128 128 126 122 118 119 120 122 122 122 123 122 120 114 99 114 120 116 112 108 105 108 117 116 122 124 129 125 124 122 120 117 116 117 116 114 106 107 106 105 79 74
129 127 123 123 121 125 125 125 124 121 122 119 119 118 115 98 106 115 114 114 112 112 118 123 122 124 124 127 130 126 126 127 125 121 119 119 121 125 127 111 106 83
129 129 126 125 125 128 127 127 126 126 127 126 123 118 117 117 101 106 116 119 123 129 126 127 133 131 125 122 118 121 126 130 132 128 128 126 133 146 144 126 115 107
134 132 132 132 132 131 132 132 131 131 130 125 130 124 116 114 119 116 120 120 120 126 123 125 129 129 128 129 121 114 112 119 127 128 129 137 144 146 142 151 137 155
142 139 137 137 136 135 133 131 133 135 132 131 130 128 128 124 115 114 112 120 123 125 127 129 125 123 123 121 119 119 125 127 124 119 127 139 153 153 163 182 174 171
143 139 137 136 134 134 134 133 131 130 127 124 125 125 127 133 136 129 126 116 122 119 124 127 122 119 115 116 117 128 127 129 138 137 138 131 129 125 174 206 242 301
137 137 134 135 134 133 133 134 131 128 125 124 121 117 114 118 123 129 128 112 105 115 118 119 126 133 140 137 127 115 123 131 142 146 145 135 109 87 23 325 333 338
140 139 140 137 138 138 137 134 132 131 129 125 121 121 122 124 124 123 124 127 122 117 115 119 125 136 145 152 146 139 131 123 129 141 136 134 134 106 34 9 9 18
141 142 141 143 141 136 135 135 135 133 129 126 125 129 132 134 130 129 126 125 128 131 126 124 129 140 135 143 141 132 127 129 136 141 140 142 135 134 126 12 356 348
145 144 143 143 141 140 139 138 134 133 133 133 132 133 131 124 128 130 127 126 122 123 123 129 126 130 143 142 141 138 133 129 134 142 148 149 144 134 134 78 19 350
147 146 145 145 146 141 138 137 136 134 135 138 143 144 131 133 139 132 130 132 132 131 123 122 119 133 143 134 131 132 128 123 119 128 136 140 131 126 121 105 49 11
150 147 148 148 145 141 139 139 140 143 142 139 136 138 137 134 136 134 133 137 142 131 126 125 122 137 137 124 123 123 125 117 119 117 110 120 125 130 122 104 77 48
151 150 149 148 147 144 142 142 142 138 142 149 151 155 152 152 150 143 143 138 136 131 127 124 126 131 131 123 123 120 116 111 111 105 101 103 108 105 109 96 86 103
155 153 151 150 150 149 146 145 146 150 150 149 139 138 129 125 123 128 138 143 145 138 125 123 121 134 138 127 127 125 119 106 119 118 119 115 104 96 81 62 40 189
160 154 153 154 153 151 149 149 148 147 147 143 140 152 145 147 152 145 145 147 147 145 131 131 135 146 144 132 131 131 118 116 119 113 116 115 109 80 58 16 268 148
158 154 155 154 155 157 154 152 151 147 152 156 153 156 154 154 148 135 148 158 152 155 150 140 148 155 145 132 135 140 139 137 138 124 112 106 100 35 66 112 324 37
128 139 148 156 159 156 153 154 156 155 155 150 154 148 146 143 136 138 141 152 162 157 151 136 143 143 134 128 129 135 131 135 134 129 123 105 92 82 153 116 5 340
150 150 154 162 161 152 156 156 150 143 147 147 152 148 143 144 139 140 144 161 173 157 142 142 138 140 121 122 126 129 134 133 141 129 142 144 120 89 6 342 6 346